www.pogodaiklimat.ru

Погода и климат >> Архив погоды >> Австралия >> Западная Австралия >> Перт Монт-Лоули


ПОГОДА в Перт Монт-Лоули

  • Прогноз погоды в Перт Монт-Лоули
  • Монитор погоды в Перт Монт-Лоули

АРХИВ ПОГОДЫ в Перт Монт-Лоули

Время (UTC), дата Ветер
(напр.,м/с)
 
Видим.   Явления Облачность Т
(С)
Тd
(С)
f
(%)
Тe
(С)
Тes
(С)
Комфортность P
(гПа)
Po
(гПа)
Тmin
(С)
Tmax
(С)
R
(мм)
R24
(мм)
S
(см)
07 18.05 Ю 1 н/о н/о +17.1 +4.4 43 +19 +19 1022.5 1019.5
09 18.05 ЮЗ 3 н/о н/о +14.2 +6.3 59 +13 +13 1022.5 1019.5
10 18.05 ЮЗ 2 н/о н/о +12.2 +6.5 68 +12 +12 1022.6 1019.6
12 18.05 штиль 0 н/о н/о +8.4 +6.0 85 +8 +8 1023.2 1020.2
13 18.05 штиль 0 н/о н/о +7.5 +6.1 91 +7 +7 1023.5 1020.5 +17.5
15 18.05 штиль 0 н/о н/о +5.7 +5.0 95 +5 +5 1023.2 1020.2
16 18.05 штиль 0 н/о н/о +4.9 +4.2 95 +4 +4 1022.5 1019.5
18 18.05 штиль 0 н/о н/о +3.7 +3.1 96 +2 +2 1022.1 1019.1
19 18.05 штиль 0 н/о н/о +3.2 +2.6 96 +2 +2 1021.6 1018.6
21 18.05 штиль 0 н/о н/о +2.6 +2.2 97 +1 +1 1021.2 1018.2
22 18.05 штиль 0 н/о н/о +2.3 +2.0 98 +1 +1 1021.0 1018.0
00 19.05 ЮЗ 2 н/о н/о +5.3 +5.0 98 +3 +3 1020.9 1017.9
01 19.05 СВ 2 н/о н/о +10.6 +3.9 63 +9 +9 1021.0 1018.0 +1.7
03 19.05 С 4 н/о н/о +15.9 +3.0 42 +15 +15 1020.1 1017.1
04 19.05 СВ 4 н/о н/о +17.7 +2.8 37 +18 +18 1018.8 1015.8
06 19.05 СВ 4 н/о н/о +20.0 +1.9 30 +20 +20 1016.3 1013.3
07 19.05 С 2 н/о н/о +19.8 +2.2 31 +21 +21 комфорт 1015.8 1012.8
09 19.05 СВ 3 н/о н/о +19.2 +0.8 29 +20 +20 1014.2 1011.2
10 19.05 штиль 0 н/о н/о +13.3 +3.4 51 +13 +13 1014.6 1011.6
12 19.05 штиль 0 н/о н/о +11.2 +6.1 71 +11 +11 1014.8 1011.8
13 19.05 штиль 0 н/о н/о +10.9 +6.6 75 +10 +10 1015.0 1012.0 +21.3
15 19.05 З 2 н/о н/о +9.8 +5.8 76 +9 +9 1014.6 1011.6
16 19.05 СВ 3 н/о н/о +10.3 +4.9 69 +9 +9 1013.8 1010.8
18 19.05 СВ 2 н/о н/о +12.9 +6.7 66 +12 +12 1013.4 1010.4
19 19.05 СВ 2 н/о н/о +13.6 +7.6 67 +13 +13 1013.3 1010.3
21 19.05 штиль 0 н/о н/о +13.0 +12.5 97 +12 +12 1013.4 1010.4
22 19.05 штиль 0 н/о туман местами н/о +13.0 +12.8 99 +12 +12 1014.2 1011.2
00 20.05 штиль 0 н/о н/о +13.8 +13.6 99 +13 +13 1016.2 1013.2
01 20.05 штиль 0 н/о {туман} н/о +15.4 +15.2 99 +15 +15 1016.7 1013.7 +5.3
03 20.05 З 4 н/о н/о +19.4 +11.7 61 +21 +21 комфорт 1017.5 1014.5
04 20.05 З 4 н/о н/о +19.8 +8.8 49 +21 +21 комфорт 1017.3 1014.3
06 20.05 З 4 н/о н/о +20.3 +9.8 51 +22 +22 комфорт 1017.2 1014.2
07 20.05 ЮЗ 4 н/о н/о +19.1 +10.6 58 +20 +20 1017.7 1014.7
09 20.05 ЮЗ 3 н/о н/о +18.1 +10.7 62 +18 +18 1018.6 1015.6
10 20.05 Ю 2 н/о н/о +16.9 +11.2 69 +17 +17 1019.3 1016.3
12 20.05 штиль 0 н/о н/о +14.6 +11.9 84 +14 +14 1020.3 1017.3
13 20.05 штиль 0 н/о в посл. час дождь {туман} н/о +14.5 +13.0 91 +14 +14 1020.8 1017.8 +21.0
15 20.05 штиль 0 н/о н/о +13.7 +13.1 96 +13 +13 1021.1 1018.1
16 20.05 штиль 0 н/о н/о +14.3 +13.2 93 +14 +14 1021.3 1018.3
18 20.05 штиль 0 н/о н/о +13.4 +13.2 99 +13 +13 1021.2 1018.2
19 20.05 Ю 1 н/о туман местами н/о +13.8 +13.6 99 +14 +14 1021.4 1018.4
21 20.05 Ю 1 н/о н/о +13.2 +12.7 97 +13 +13 1021.5 1018.5
22 20.05 СВ 1 н/о н/о +13.0 +12.2 95 +13 +13 1021.9 1018.9
00 21.05 СВ 2 н/о н/о +13.5 +12.1 91 +13 +13 1023.2 1020.2
01 21.05 С 3 н/о н/о +15.1 +12.2 83 +15 +15 1023.8 1020.8 +12.8
03 21.05 СВ 3 н/о н/о +19.3 +11.3 60 +21 +21 комфорт 1023.4 1020.4
04 21.05 СЗ 2 н/о н/о +19.5 +8.5 49 +21 +21 комфорт 1022.8 1019.8
06 21.05 З 2 н/о н/о +20.5 +9.1 48 +23 +23 комфорт 1022.1 1019.1
07 21.05 З 2 н/о н/о +19.2 +9.7 54 +21 +21 комфорт 1022.1 1019.1
09 21.05 ЮЗ 3 н/о н/о +17.6 +10.0 61 +18 +18 1022.4 1019.4
10 21.05 ЮЗ 1 н/о н/о +15.5 +10.5 72 +16 +16 1022.6 1019.6
12 21.05 штиль 0 н/о н/о +12.3 +10.5 89 +12 +12 1023.3 1020.3
13 21.05 штиль 0 н/о н/о +11.4 +10.3 93 +11 +11 1023.6 1020.6 +20.9
15 21.05 штиль 0 н/о н/о +12.1 +11.3 95 +11 +11 1023.6 1020.6
16 21.05 штиль 0 н/о н/о +12.5 +10.9 90 +12 +12 1023.5 1020.5
18 21.05 штиль 0 н/о н/о +9.9 +9.1 95 +9 +9 1023.3 1020.3
19 21.05 штиль 0 н/о н/о +8.7 +8.1 96 +8 +8 1023.2 1020.2
21 21.05 ЮЗ 1 н/о н/о +7.5 +7.2 98 +7 +7 1022.9 1019.9
22 21.05 штиль 0 н/о н/о +7.4 +7.3 99 +6 +6 1023.1 1020.1
00 22.05 ЮЗ 1 н/о н/о +9.3 +9.2 99 +8 +8 1023.8 1020.8
01 22.05 В 2 н/о н/о +13.8 +9.3 74 +13 +13 1023.9 1020.9 +6.9
03 22.05 СВ 2 н/о н/о +19.3 +8.3 49 +21 +21 комфорт 1022.9 1019.9
04 22.05 В 1 н/о н/о +20.7 +7.7 43 +23 +23 комфорт 1022.0 1019.0
06 22.05 ЮЗ 3 н/о н/о +21.3 +7.5 41 +22 +22 комфорт 1020.3 1017.3
07 22.05 ЮЗ 3 н/о н/о +21.1 +7.3 41 +22 +22 комфорт 1020.0 1017.0
09 22.05 ЮЗ 3 н/о н/о +18.8 +9.3 54 +20 +20 1020.5 1017.5
10 22.05 ЮЗ 2 н/о н/о +17.4 +10.3 63 +18 +18 1020.9 1017.9
12 22.05 ЮЗ 2 н/о н/о +16.6 +10.5 67 +17 +17 1021.9 1018.9
13 22.05 Ю 2 н/о н/о +16.0 +10.1 68 +16 +16 1022.3 1019.3 +21.9
15 22.05 штиль 0 н/о н/о +12.3 +9.5 83 +12 +12 1022.7 1019.7
16 22.05 штиль 0 н/о н/о +10.9 +9.3 90 +10 +10 1022.3 1019.3
18 22.05 штиль 0 н/о н/о +11.8 +9.9 88 +11 +11 1022.3 1019.3
19 22.05 штиль 0 н/о н/о +11.3 +9.9 91 +11 +11 1022.5 1019.5
21 22.05 В 1 н/о н/о +12.0 +9.6 85 +13 +13 1022.7 1019.7
22 22.05 СВ 1 н/о н/о +12.2 +9.2 82 +13 +13 1023.3 1020.3
00 23.05 СВ 2 н/о н/о +12.5 +9.5 82 +12 +12 1024.1 1021.1
01 23.05 штиль 0 н/о н/о +13.5 +9.7 78 +13 +13 1024.6 1021.6 +9.4
03 23.05 С 1 н/о н/о +19.3 +10.3 56 +22 +22 комфорт 1024.6 1021.6
04 23.05 СВ 1 н/о н/о +19.9 +11.7 59 +23 +23 комфорт 1024.1 1021.1
06 23.05 Ю 2 н/о н/о +20.1 +11.6 58 +22 +22 комфорт 1022.9 1019.9
07 23.05 Ю 3 н/о н/о +20.4 +11.3 56 +23 +23 комфорт 1022.8 1019.8
09 23.05 ЮЗ 3 н/о н/о +18.2 +11.3 64 +19 +19 1023.5 1020.5
10 23.05 штиль 0 н/о н/о +16.1 +11.7 75 +16 +16 1023.6 1020.6
12 23.05 штиль 0 н/о н/о +12.6 +11.0 90 +12 +12 1024.3 1021.3
13 23.05 штиль 0 н/о н/о +11.5 +10.7 95 +11 +11 1024.3 1021.3 +21.3
15 23.05 штиль 0 н/о н/о +9.8 +9.2 96 +9 +9 1023.7 1020.7
16 23.05 штиль 0 н/о н/о +9.3 +8.8 97 +8 +8 1023.8 1020.8
18 23.05 штиль 0 н/о н/о +9.0 +8.9 99 +8 +8 1024.1 1021.1
19 23.05 штиль 0 н/о н/о +8.3 +8.2 99 +7 +7 1023.5 1020.5
21 23.05 штиль 0 н/о н/о +7.2 +7.1 99 +6 +6 1023.0 1020.0
22 23.05 штиль 0 н/о н/о +7.3 +7.2 99 +6 +6 1023.1 1020.1
00 24.05 штиль 0 н/о н/о +9.3 +9.2 99 +8 +8 1024.3 1021.3
01 24.05 ЮЗ 1 н/о н/о +11.5 +10.4 93 +12 +12 1025.2 1022.1 +6.8
03 24.05 С 2 н/о н/о +19.0 +11.1 60 +21 +21 комфорт 1024.6 1021.6
04 24.05 ЮЗ 3 н/о н/о +20.1 +10.2 53 +22 +22 комфорт 1024.1 1021.1
06 24.05 ЮЗ 3 н/о н/о +20.4 +9.9 51 +22 +22 комфорт 1023.4 1020.4
07 24.05 ЮЗ 3 н/о н/о +19.7 +10.4 55 +21 +21 комфорт 1023.4 1020.4
09 24.05 З 2 н/о н/о +17.8 +11.8 68 +19 +19 1023.3 1020.3
10 24.05 ЮЗ 2 н/о н/о +15.8 +11.6 76 +16 +16 1023.2 1020.2
12 24.05 ЮЗ 2 н/о н/о +14.5 +12.0 85 +14 +14 1024.3 1021.3
13 24.05 штиль 0 н/о н/о +15.1 +12.2 83 +15 +15 1024.7 1021.7 +21.2
15 24.05 штиль 0 н/о н/о +14.7 +12.4 86 +14 +14 1024.8 1021.8
16 24.05 штиль 0 н/о н/о +13.9 +11.9 88 +13 +13 1024.4 1021.4
18 24.05 ЮВ 1 н/о н/о +13.6 +11.5 87 +15 +15 1024.5 1021.5
19 24.05 штиль 0 н/о н/о +11.5 +10.4 93 +11 +11 1024.3 1021.3
21 24.05 штиль 0 н/о н/о +9.5 +9.2 98 +9 +9 1024.6 1021.6
22 24.05 штиль 0 н/о н/о +8.9 +8.8 99 +8 +8 1025.2 1022.1
00 25.05 штиль 0 н/о н/о +9.3 +9.2 99 +8 +8 1026.5 1023.4
01 25.05 В 1 н/о н/о +13.9 +11.4 85 +14 +14 1026.5 1023.4 +7.7
03 25.05 В 3 н/о н/о +17.4 +10.3 63 +18 +18 1026.1 1023.0
04 25.05 В 2 н/о н/о +18.4 +9.5 56 +19 +19 1025.1 1022.0
06 25.05 ЮВ 2 н/о н/о +20.3 +9.5 50 +23 +23 комфорт 1023.5 1020.5
07 25.05 ЮЗ 3 н/о н/о +20.1 +9.9 52 +22 +22 комфорт 1023.3 1020.3

 

Местоположение метеостанции Перт Монт-Лоули (Западная Австралия, Австралия): широта -31.92 долгота 115.87 высота над уровнем моря 25 м.

В архиве по умолчанию представлена погода в Перт Монт-Лоули за последнюю неделю. Архивные данные за месяц целиком и за предыдущие месяцы, начиная с января 2011 года, Вы можете получить, выбрав интересующий диапазон дат из раскрывающегося списка и нажав кнопку "Ввод!".


*Определитесь, кто Вы:
робот инопланетянин человек

Внимание! Время в таблицах - всемирное. Для получения местного времени необходимо прибавить поправку, которая равна 8 ч.

Смотрите также архив погоды в соседних городах и на ближайших метеорологических станциях:

Погода в Перте (Западная Австралия, Австралия) (9 км)
Погода в Суонборне (Западная Австралия, Австралия) (10 км)
Погода в Гусберри Хилл (Западная Австралия, Австралия) (17 км)
Погода в Перт Джандакот (Западная Австралия, Австралия) (20 км)
Погода в Ошен Риф (Западная Австралия, Австралия) (22 км)
Погода в Обсерватории Перт (Западная Австралия, Австралия) (27 км)
Погода в Буллсбрук Пирс (Западная Австралия, Австралия) (31 км)
Погода на Острове Роттнест (Западная Австралия, Австралия) (37 км)
Погода на Острове Гарден (Западная Австралия, Австралия) (39 км)
Погода в Гингине (Западная Австралия, Австралия) (50 км)

Пояснения к столбцам:

Ветер - указаны скорость ветра в м/с - средняя за 10 мин, порывы в срок и между сроками (в фигурных скобках) и направление, откуда дует ветер: С - северный, СВ - северо-восточный, В - восточный, ЮВ - юго-восточный, Ю - южный, ЮЗ - юго-западный, З - западный, СЗ - северо-западный.
Видимость - горизонтальная дальность видимости в метрах или километрах. При видимости от 1 до 10 км при отсутствии осадков обычно наблюдается дымка, при ухудшении видимости до 1 км и менее - туман. В сухую погоду видимость может ухудшаться дымом, пылью или мглою.
Явления - указаны атмосферные явления, наблюдавшиеся в срок или в последний час перед сроком; фигурными скобками обозначены явления, наблюдавшиеся между сроками (за 1-3 часа до срока); квадратными скобками обозначены град или гололедные отложения с указанием их диаметра в мм.
Облачность - указаны через наклонную черту общая и нижняя облачность в баллах и высота нижней границы облаков в метрах; квадратными скобками обозначены формы облаков: Ci - перистые, Cs - перисто-слоистые, Cc - перисто-кучевые, Ac - высококучевые, As - высокослоистые, Sc - слоисто-кучевые, Ns - слоисто-дождевые, Cu - кучевые, Cb - кучево-дождевые. Подробнее классификацию облаков см. в Атласе облаков (PDF).
T - Температура воздуха - температура, измеренная на высоте 2 м над землей.
Td - Температура точки росы - температура, при понижении до которой содержащийся в воздухе водяной пар достигнет насыщения.
f - Относительная влажность воздуха - влажноcть воздуха, измеренная на высоте 2 м над землей.
Te - Эффективная температура - температура, которую ощущает одетый по сезону человек в тени. Характеристика душности погоды. При расчете учитывается влияние влажности воздуха и скорости ветра на теплоощущения человека.
Tes - Эффективная температура на солнце - температура, которую ощущает человек, с поправкой на солнечный нагрев. Характеристика знойности погоды. Зависит от высоты солнца над горизонтом, облачности и скорости ветра. Ночью, в пасмурную погоду, а также при ветре 12 м/с и более поправка равна нулю.
P - Атмосферное давление - приведенное к уровню моря атмосферное давление.
Po - Атмосферное давление - измеренное на уровне метеостанции атмосферное давление.
Tmin - Минимальная температура - минимум температуры воздуха на высоте 2 м над землей.
Tmax - Максимальная температура - максимум температуры воздуха на высоте 2 м над землей.
R - Количество осадков - Количество выпавших осадков за период времени, мм. При наведении курсора мыши на число - период времени, за который выпало указанное количество осадков.
R24 - Количество осадков - Количество выпавших осадков за 24 часа, мм.
S - Снежный покров - Высота снежного покрова, см. При наведении курсора мыши на число - состояние снежного покрова и степень покрытия местности в баллах.